Home   Weather   Sheboygan   Past weeks

Flag for USA Past Weather in Sheboygan, Wisconsin, USA — Yesterday and Last 2 Weeks

Now
69 °F

Overcast.


Feels Like: 69 °F
Forecast: 64 / 75 °F
Wind: 10 mph from Northwest

Location: Sheboygan County Memorial Airport

Current Time: Aug 18, 2017 at 11:23:42 am

Latest Report: Aug 18, 2017 at 10:53 am


Visibility: 10 mi

Pressure: 29.80 "Hg

Humidity: 76%

Dew Point: 61 °F

Location of SheboyganLocation

Past Weather in Sheboygan — Graph

°F

Sheboygan Temperature Yesterday

Maximum temperature yesterday: 80 °F (at 2:53 pm)
Minimum temperature yesterday: 67 °F (at 10:53 pm)
Average temperature yesterday: 73 °F

High & Low Weather Summary for the Past Weeks

 TemperatureHumidityPressure
High80 °F (Aug 17, 2:53 pm)100% (Aug 3, 9:53 am)30.17 "Hg (Aug 3, 9:53 am)
Low52 °F (Aug 13, 4:53 am)47% (Aug 8, 2:53 pm)29.59 "Hg (Aug 17, 5:53 pm)
Average65 °F86%29.96 "Hg
* Reported Aug 3 9:00 am — Aug 18 9:53 am, Sheboygan. Weather by CustomWeather, © 2017

Note: Actual official high and low records may vary slightly from our data, if they occured in-between our weather recording intervals... More about our weather records

Advertising

Sheboygan Weather History for the Previous 24 Hours

Scroll right to see more
 ConditionsComfort  
Time TempWeatherWind HumidityBarometerVisibility
9:53 am
Fri, Aug 18
67 °FOvercast.10 mph81%29.80 "Hg10 mi
8:53 am66 °FOvercast.13 mph84%29.78 "Hg10 mi
7:53 am67 °FOvercast.9 mph81%29.75 "Hg10 mi
6:53 am66 °FOvercast.14 mph84%29.73 "Hg10 mi
5:53 am66 °FOvercast.7 mph87%29.72 "Hg10 mi
5:43 am66 °FOvercast.12 mph87%29.73 "Hg10 mi
5:12 am65 °FPassing clouds.10 mph91%29.71 "Hg10 mi
4:53 am65 °FOvercast.13 mph94%29.70 "Hg10 mi
3:53 am66 °FPassing clouds.9 mph87%29.68 "Hg10 mi
3:28 am66 °FOvercast.9 mph84%29.69 "Hg10 mi
2:53 am66 °FMostly cloudy.12 mph87%29.67 "Hg10 mi
2:07 am66 °FPassing clouds.13 mph87%29.68 "Hg10 mi
1:41 am66 °FPassing clouds.10 mph87%29.68 "Hg10 mi
12:53 am66 °FPassing clouds.13 mph87%29.66 "Hg10 mi
11:53 pm
Thu, Aug 17
67 °FOvercast.14 mph87%29.66 "Hg10 mi
10:53 pm67 °FOvercast.14 mph87%29.66 "Hg10 mi
9:53 pm68 °FMostly cloudy.15 mph87%29.65 "Hg10 mi
9:17 pm70 °FOvercast.13 mph84%29.66 "Hg10 mi
8:53 pm71 °FMostly cloudy.17 mph84%29.64 "Hg10 mi
7:53 pm72 °FMostly cloudy.13 mph81%29.62 "Hg10 mi
6:53 pm73 °FPartly sunny.14 mph81%29.61 "Hg10 mi
5:53 pm75 °FBroken clouds.10 mph79%29.59 "Hg10 mi
4:53 pm74 °FLight rain. Mostly cloudy.18 mph82%29.61 "Hg8 mi
3:53 pm75 °FMostly cloudy.9 mph85%29.60 "Hg10 mi
2:53 pm80 °FPassing clouds.18 mph60%29.60 "Hg10 mi
1:53 pm79 °FPartly sunny.16 mph69%29.62 "Hg10 mi
12:53 pm76 °FMostly cloudy.18 mph74%29.63 "Hg10 mi
11:53 am79 °FPartly sunny.16 mph74%29.64 "Hg10 mi
Weather by CustomWeather, © 2017

See weather overviewHow to use our weather pages